Kelowna, British Columbia

6:20 AM PDT on May 24, 2017 (GMT -0700)
Kelowna

Weather History for CYLW - November, 2012

Change the Weather History Date:

Thursday, November 8, 2012

  Actual Average Record
Temperature  
Mean Temperature 34 °F -  
Max Temperature 43 °F 38 °F 61 °F (2016)
Min Temperature 24 °F 25 °F 14 °F (2003)
Degree Days  
Heating Degree Days 32    
Moisture  
Dew Point 29 °F    
Average Humidity 85    
Maximum Humidity 100    
Minimum Humidity 54    
Precipitation  
Precipitation 0.00 in 0.04 in - ()
Sea Level Pressure  
Sea Level Pressure 29.99 in    
Wind  
Wind Speed 4 mph ()    
Max Wind Speed 18 mph    
Max Gust Speed 23 mph    
Visibility 8.0 miles    
Events Rain    
Averages and records for this station are not official NWS values.
T = Trace of Precipitation, MM = Missing Value Source: Averaged Metar Reports

Daily Weather History Graph

Daily Weather History Graph

Search for Another Location

Airport or City:

Trip Planner

Search our weather history database for the weather conditions in past years. The results will help you decide how hot, cold, wet, or windy it might be!

Date:

Astronomy

Nov. 08, 2012 Rise Set
Actual Time 6:59 AM PST 4:22 PM PST
Civil Twilight 6:24 AM PST 4:56 PM PST
Nautical Twilight 5:46 AM PST 5:35 PM PST
Astronomical Twilight 5:08 AM PST 6:13 PM PST
Moon 12:27 AM PST (11/8) 1:35 PM PST (11/8)
Length of Visible Light 10h 31m
Length of Day
9h 22m
Waning Crescent, 32% of the Moon is Illuminated
Nov 8
Waning Crescent
Nov 13
New
Nov 20
First Quarter
Nov 28
Full
Dec 6
Last Quarter

Hourly Weather History & Observations

Time (PST) Temp. Windchill Dew Point Humidity Pressure Visibility Wind Dir Wind Speed Gust Speed Precip Events Conditions
12:00 AM 30.2 °F 25.4 °F 28.4 °F 93% 30.07 in 9.0 mi North 4.6 mph - N/A   Partly Cloudy
1:00 AM 28.4 °F - 26.6 °F 93% 30.06 in 9.0 mi Calm Calm - N/A   Clear
2:00 AM 26.6 °F - 24.8 °F 93% 30.06 in 9.0 mi Variable 2.3 mph - N/A   Clear
3:00 AM 26.6 °F 21.2 °F 26.6 °F 100% 30.05 in 9.0 mi ENE 4.6 mph - N/A   Clear
4:00 AM 26 °F - 25 °F 92% 30.05 in 10 mi ENE 1.2 mph - -  
4:00 AM 26.6 °F - 24.8 °F 93% 30.05 in 9.0 mi Calm Calm - N/A   Scattered Clouds
4:51 AM 26.6 °F - 26.6 °F 100% 30.04 in 5.0 mi Calm Calm - N/A   Scattered Clouds
4:57 AM 26.6 °F - 24.8 °F 93% 30.04 in 7.0 mi Calm Calm - N/A   Partly Cloudy
5:00 AM 26.6 °F - 24.8 °F 93% 30.05 in 8.0 mi Calm Calm - N/A   Partly Cloudy
5:56 AM 26.6 °F 22.6 °F 24.8 °F 93% 30.04 in 5.0 mi East 3.5 mph - N/A   Scattered Clouds
6:00 AM 24.8 °F - 23.0 °F 93% 30.04 in 4.0 mi ENE 2.3 mph - N/A   Scattered Clouds
6:06 AM 26.6 °F - 24.8 °F 93% 30.04 in 7.0 mi Variable 2.3 mph - N/A   Mostly Cloudy
6:22 AM 26.6 °F - 24.8 °F 93% 30.04 in 9.0 mi Variable 2.3 mph - N/A   Overcast
6:52 AM 26.6 °F - 26.6 °F 100% 30.04 in 9.0 mi Calm Calm - N/A   Scattered Clouds
7:00 AM 26.6 °F - 26.6 °F 100% 30.05 in 9.0 mi Calm Calm - N/A   Scattered Clouds
7:02 AM 26.6 °F - 26.6 °F 100% 30.04 in 9.0 mi Calm Calm - N/A   Mostly Cloudy
7:18 AM 28.4 °F - 26.6 °F 93% 30.04 in 9.0 mi Variable 2.3 mph - N/A   Mostly Cloudy
7:38 AM 28.4 °F - 26.6 °F 93% 30.04 in 9.0 mi Calm Calm - N/A   Overcast
7:39 AM 28.4 °F - 28.4 °F 100% 30.04 in 9.0 mi Calm Calm - N/A   Overcast
7:40 AM 28.4 °F - 28.4 °F 100% 30.04 in 9.0 mi North 2.3 mph - N/A   Overcast
7:52 AM 30.2 °F 26.7 °F 30.2 °F 100% 30.04 in 5.0 mi East 3.5 mph - N/A   Overcast
8:00 AM 30.2 °F 26.7 °F 30.2 °F 100% 30.04 in 3.0 mi Variable 3.5 mph - N/A   Overcast
8:03 AM 30.2 °F - 30.2 °F 100% 30.04 in 6.0 mi Variable 2.3 mph - N/A   Overcast
8:15 AM 32.0 °F - 30.2 °F 93% 30.04 in 5.0 mi Calm Calm - N/A   Overcast
8:27 AM 32.0 °F - 30.2 °F 93% 30.03 in 6.0 mi Variable 2.3 mph - N/A   Overcast
9:00 AM 32.0 °F - 30.2 °F 93% 30.03 in 4.0 mi Calm Calm - N/A   Overcast
9:09 AM 33.8 °F 29.6 °F 30.2 °F 87% 30.02 in 6.0 mi South 4.6 mph - N/A   Mostly Cloudy
9:32 AM 33.8 °F - 30.2 °F 87% 30.01 in 5.0 mi Variable 2.3 mph - N/A   Overcast
9:41 AM 35.6 °F 32.8 °F 32.0 °F 87% 30.01 in 6.0 mi SE 3.5 mph - N/A   Haze
10:00 AM 37 °F - 33 °F 78% 30.00 in 10 mi SE 2.3 mph - -   Overcast
10:00 AM 37.4 °F - 32.0 °F 81% 30.00 in 9.0 mi Variable 2.3 mph - N/A   Overcast
10:14 AM 37.4 °F 32.1 °F 33.8 °F 87% 29.99 in 9.0 mi Variable 6.9 mph - N/A   Overcast
11:57 AM 41.0 °F 32.2 °F 30.2 °F 65% 29.94 in 9.0 mi NNW 18.4 mph - N/A   Overcast
12:00 PM 41.0 °F 32.5 °F 30.2 °F 65% 29.94 in 9.0 mi NNW 17.3 mph - N/A   Overcast
1:00 PM 41.0 °F 33.1 °F 30.2 °F 65% 29.93 in 9.0 mi North 15.0 mph - N/A   Overcast
2:00 PM 42.8 °F 35.4 °F 30.2 °F 61% 29.91 in 9.0 mi NNW 15.0 mph 21.9 mph N/A   Partly Cloudy
3:00 PM 42.8 °F 35.4 °F 30.2 °F 61% 29.90 in 9.0 mi North 15.0 mph 21.9 mph N/A   Mostly Cloudy
4:00 PM 41 °F - 30 °F 54% 29.91 in 10 mi North 11.5 mph - -  
4:00 PM 41.0 °F 34.3 °F 30.2 °F 65% 29.91 in 9.0 mi North 11.5 mph - N/A   Mostly Cloudy
5:00 PM 41.0 °F 35.8 °F 30.2 °F 65% 29.89 in 9.0 mi North 8.1 mph - N/A   Overcast
6:00 PM 39.2 °F 33.0 °F 30.2 °F 70% 29.90 in 9.0 mi North 9.2 mph - N/A   Overcast
7:00 PM 39.2 °F 32.5 °F 32.0 °F 75% 29.88 in 9.0 mi North 10.4 mph - N/A   Overcast
8:00 PM 39.2 °F 30.8 °F 30.2 °F 70% 29.87 in 9.0 mi North 15.0 mph - N/A   Overcast
9:00 PM 39.2 °F 29.8 °F 28.4 °F 65% 29.86 in 9.0 mi North 18.4 mph - N/A   Overcast
10:00 PM 38 °F - 28 °F 56% 29.86 in 10 mi North 16.1 mph - -   Overcast
10:00 PM 39.2 °F 30.5 °F 28.4 °F 65% 29.86 in 9.0 mi North 16.1 mph - N/A   Overcast
11:00 PM 35.6 °F 26.2 °F 30.2 °F 81% 29.86 in 9.0 mi North 15.0 mph 20.7 mph N/A   Overcast
11:20 PM 35.6 °F 25.9 °F 32.0 °F 87% 29.87 in 9.0 mi North 16.1 mph 23.0 mph N/A Rain Light Rain
11:53 PM 33.8 °F 24.8 °F 32.0 °F 93% 29.87 in 9.0 mi North 12.7 mph 19.6 mph N/A   Overcast